| time (UTC) | temp F | wind direction | speed MPH | gust MPH | rain 1hr in | rain 24hr in | rain mn in | humidity % | barometer mb |
| 20260904154550 | 55 | 14 | 11.0 | 17.0 | 0.00 | 0.00 | 0.00 | 56 | 1010.4 |
| 20260904153103 | 55 | 329 | 12.0 | 17.0 | 0.00 | 0.00 | 0.00 | 57 | 1010.2 |
| 20260904151546 | 54 | 347 | 11.0 | 14.0 | 0.00 | 0.00 | 0.00 | 58 | 1010.1 |
| 20260904150045 | 53 | 340 | 10.0 | 15.0 | 0.00 | 0.00 | 0.00 | 59 | 1009.6 |
| 20260904144547 | 51 | 5 | 10.0 | 13.0 | 0.00 | 0.00 | 0.00 | 62 | 1009.4 |
| 20260904143042 | 49 | 23 | 5.0 | 10.0 | 0.00 | 0.00 | 0.00 | 67 | 1009.0 |
| 20260904141550 | 48 | 27 | 4.0 | 8.0 | 0.00 | 0.00 | 0.00 | 68 | 1009.0 |
| 20260904140049 | 48 | 35 | 6.0 | 10.0 | 0.00 | 0.00 | 0.00 | 68 | 1009.0 |
| 20260904134556 | 47 | 39 | 3.0 | 9.0 | 0.00 | 0.00 | 0.00 | 70 | 1008.9 |
| 20260904133049 | 47 | 35 | 5.0 | 10.0 | 0.00 | 0.00 | 0.00 | 69 | 1008.4 |
| 20260904131602 | 46 | 27 | 6.0 | 10.0 | 0.00 | 0.00 | 0.00 | 69 | 1008.6 |
| 20260904130052 | 45 | 24 | 5.0 | 9.0 | 0.00 | 0.00 | 0.00 | 72 | 1008.6 |
| 20260904124542 | 45 | 34 | 3.0 | 8.0 | 0.00 | 0.01 | 0.00 | 72 | 1008.6 |
| 20260904123046 | 44 | 30 | 4.0 | 9.0 | 0.00 | 0.01 | 0.00 | 73 | 1008.6 |
| 20260904121541 | 44 | 34 | 4.0 | 9.0 | 0.00 | 0.01 | 0.00 | 73 | 1008.5 |
| 20260904120048 | 45 | 37 | 4.0 | 8.0 | 0.00 | 0.01 | 0.00 | 73 | 1008.3 |
| 20260904114543 | 45 | 34 | 4.0 | 9.0 | 0.00 | 0.01 | 0.00 | 72 | 1008.4 |
| 20260904113046 | 45 | 53 | 4.0 | 8.0 | 0.00 | 0.01 | 0.00 | 73 | 1008.6 |
| 20260904111543 | 45 | 52 | 4.0 | 8.0 | 0.00 | 0.01 | 0.00 | 73 | 1008.5 |
| 20260904110050 | 46 | 36 | 4.0 | 7.0 | 0.00 | 0.01 | 0.00 | 71 | 1008.7 |
| 20260904104543 | 47 | 46 | 4.0 | 8.0 | 0.00 | 0.01 | 0.00 | 70 | 1008.8 |
| 20260904103052 | 47 | 34 | 4.0 | 9.0 | 0.00 | 0.01 | 0.00 | 70 | 1008.8 |
| 20260904101551 | 47 | 42 | 3.0 | 8.0 | 0.00 | 0.01 | 0.00 | 69 | 1009.0 |
| 20260904100051 | 46 | 39 | 4.0 | 6.0 | 0.00 | 0.01 | 0.00 | 71 | 1009.2 |
| 20260904094558 | 47 | 51 | 3.0 | 6.0 | 0.00 | 0.01 | 0.00 | 69 | 1009.4 |
| 20260904093041 | 48 | 36 | 3.0 | 5.0 | 0.00 | 0.01 | 0.00 | 68 | 1009.5 |
| 20260904091604 | 48 | 26 | 3.0 | 5.0 | 0.00 | 0.01 | 0.00 | 67 | 1009.4 |
| 20260904090053 | 48 | 30 | 2.0 | 4.0 | 0.00 | 0.01 | 0.00 | 67 | 1009.4 |
| 20260904084543 | 49 | 17 | 3.0 | 5.0 | 0.00 | 0.01 | 0.00 | 67 | 1009.4 |
| 20260904083050 | 49 | 21 | 3.0 | 6.0 | 0.00 | 0.01 | 0.00 | 66 | 1009.4 |
| 20260904081546 | 49 | 29 | 4.0 | 5.0 | 0.00 | 0.01 | 0.00 | 66 | 1009.4 |
| 20260904080042 | 51 | 32 | 4.0 | 6.0 | 0.00 | 0.01 | 0.00 | 64 | 1009.4 |
| 20260904074550 | 53 | 40 | 3.0 | 5.0 | 0.00 | 0.01 | 0.00 | 61 | 1009.7 |
| 20260904073056 | 53 | 42 | 3.0 | 6.0 | 0.00 | 0.01 | 0.00 | 61 | 1010.0 |
| 20260904071546 | 53 | 57 | 3.0 | 5.0 | 0.00 | 0.01 | 0.00 | 61 | 1010.1 |
| 20260904070045 | 53 | 53 | 3.0 | 6.0 | 0.00 | 0.01 | 0.00 | 61 | 1010.4 |
| 20260904064548 | 52 | 72 | 3.0 | 5.0 | 0.00 | 0.01 | 0.00 | 63 | 1010.4 |
| 20260904063057 | 53 | 72 | 3.0 | 5.0 | 0.00 | 0.01 | 0.00 | 62 | 1010.6 |
| 20260904061553 | 54 | 69 | 3.0 | 4.0 | 0.00 | 0.01 | 0.00 | 60 | 1010.4 |
| 20260904060057 | 55 | 69 | 2.0 | 3.0 | 0.00 | 0.01 | 0.00 | 59 | 1010.3 |
| 20260904054616 | 55 | 0 | 0.0 | 0.0 | 0.00 | 0.02 | 0.01 | 58 | 1010.2 |
| 20260904053047 | 54 | 0 | 0.0 | 1.0 | 0.00 | 0.02 | 0.01 | 61 | 1010.6 |
| 20260904051543 | 54 | 0 | 0.0 | 2.0 | 0.00 | 0.02 | 0.01 | 60 | 1010.8 |
| 20260904050054 | 54 | 0 | 0.0 | 2.0 | 0.00 | 0.02 | 0.01 | 59 | 1010.9 |
| 20260904044550 | 55 | 69 | 0.0 | 3.0 | 0.00 | 0.08 | 0.01 | 59 | 1010.9 |
| 20260904043051 | 56 | 69 | 1.0 | 4.0 | 0.00 | 0.08 | 0.01 | 58 | 1011.0 |
| 20260904041543 | 56 | 67 | 2.0 | 5.0 | 0.00 | 0.08 | 0.01 | 58 | 1011.0 |
| 20260904040047 | 57 | 267 | 2.0 | 4.0 | 0.00 | 0.08 | 0.01 | 56 | 1010.8 |
| 20260904034550 | 58 | 269 | 2.0 | 4.0 | 0.00 | 0.08 | 0.01 | 55 | 1010.6 |
| 20260904033048 | 60 | 270 | 2.0 | 3.0 | 0.00 | 0.08 | 0.01 | 51 | 1010.4 |
| 20260904031547 | 61 | 271 | 3.0 | 6.0 | 0.00 | 0.08 | 0.01 | 50 | 1010.3 |
| 20260904030042 | 61 | 272 | 2.0 | 6.0 | 0.00 | 0.08 | 0.01 | 49 | 1010.2 |
| 20260904024542 | 62 | 273 | 1.0 | 6.0 | 0.00 | 0.08 | 0.01 | 47 | 1010.2 |
| 20260904023052 | 63 | 277 | 2.0 | 4.0 | 0.00 | 0.08 | 0.01 | 45 | 1009.9 |
| 20260904021552 | 64 | 276 | 2.0 | 6.0 | 0.00 | 0.08 | 0.01 | 43 | 1009.8 |
| 20260904020047 | 65 | 275 | 1.0 | 3.0 | 0.00 | 0.08 | 0.01 | 45 | 1010.0 |
| 20260904014613 | 65 | 275 | 3.0 | 9.0 | 0.00 | 0.08 | 0.01 | 42 | 1009.8 |
| 20260904013114 | 66 | 283 | 8.0 | 13.0 | 0.00 | 0.08 | 0.01 | 41 | 1009.7 |
| 20260904011548 | 66 | 274 | 9.0 | 16.0 | 0.00 | 0.08 | 0.01 | 41 | 1009.5 |
| 20260904010043 | 65 | 264 | 8.0 | 13.0 | 0.00 | 0.08 | 0.01 | 41 | 1009.9 |
| 20260904004550 | 66 | 271 | 9.0 | 18.0 | 0.00 | 0.08 | 0.01 | 39 | 1010.1 |
| 20260904003045 | 67 | 302 | 14.0 | 23.0 | 0.00 | 0.08 | 0.01 | 38 | 1010.0 |
| 20260904001542 | 68 | 288 | 17.0 | 27.0 | 0.00 | 0.08 | 0.01 | 38 | 1009.7 |
| 20260903234549 | 69 | 266 | 14.0 | 31.0 | 0.00 | 0.28 | 0.01 | 36 | 1009.7 |
| 20260903233053 | 69 | 254 | 19.0 | 28.0 | 0.00 | 0.28 | 0.01 | 35 | 1009.6 |
| 20260903231543 | 69 | 274 | 15.0 | 25.0 | 0.00 | 0.28 | 0.01 | 37 | 1009.9 |
| 20260903224547 | 69 | 248 | 18.0 | 29.0 | 0.00 | 0.28 | 0.01 | 37 | 1009.8 |
| 20260903223050 | 69 | 248 | 18.0 | 30.0 | 0.00 | 0.28 | 0.01 | 39 | 1009.9 |
| 20260903221555 | 69 | 244 | 18.0 | 31.0 | 0.00 | 0.28 | 0.01 | 39 | 1009.3 |
| 20260903220046 | 69 | 264 | 20.0 | 31.0 | 0.00 | 0.28 | 0.01 | 38 | 1009.2 |
| 20260903214544 | 70 | 269 | 21.0 | 29.0 | 0.00 | 0.28 | 0.01 | 39 | 1009.0 |
| 20260903213044 | 70 | 276 | 17.0 | 27.0 | 0.00 | 0.28 | 0.01 | 37 | 1009.0 |
| 20260903211604 | 70 | 246 | 17.0 | 28.0 | 0.00 | 0.28 | 0.01 | 40 | 1009.0 |
| 20260903210045 | 70 | 267 | 20.0 | 32.0 | 0.00 | 0.28 | 0.01 | 39 | 1008.9 |
| 20260903204543 | 70 | 232 | 20.0 | 30.0 | 0.00 | 0.28 | 0.01 | 40 | 1008.9 |
| 20260903203043 | 70 | 245 | 21.0 | 31.0 | 0.00 | 0.28 | 0.01 | 39 | 1008.7 |
| 20260903201557 | 70 | 257 | 21.0 | 32.0 | 0.00 | 0.28 | 0.01 | 40 | 1008.5 |
| 20260903200050 | 69 | 242 | 20.0 | 27.0 | 0.00 | 0.28 | 0.01 | 43 | 1008.3 |
| 20260903194548 | 69 | 248 | 20.0 | 32.0 | 0.00 | 0.28 | 0.01 | 42 | 1008.3 |
| 20260903193046 | 69 | 248 | 22.0 | 33.0 | 0.00 | 0.28 | 0.01 | 42 | 1008.6 |
| 20260903191551 | 68 | 244 | 23.0 | 34.0 | 0.00 | 0.28 | 0.01 | 42 | 1008.4 |
| 20260903190047 | 68 | 239 | 23.0 | 32.0 | 0.00 | 0.28 | 0.01 | 44 | 1008.7 |
| 20260903184552 | 68 | 242 | 16.0 | 26.0 | 0.00 | 0.28 | 0.01 | 45 | 1008.4 |
| 20260903183052 | 67 | 250 | 18.0 | 29.0 | 0.00 | 0.28 | 0.01 | 45 | 1008.3 |
| 20260903181546 | 67 | 237 | 17.0 | 27.0 | 0.00 | 0.28 | 0.01 | 46 | 1008.5 |
| 20260903180044 | 67 | 248 | 15.0 | 30.0 | 0.00 | 0.28 | 0.01 | 48 | 1008.3 |
| 20260903174543 | 66 | 245 | 16.0 | 21.0 | 0.00 | 0.28 | 0.01 | 47 | 1008.4 |
| 20260903173049 | 66 | 241 | 17.0 | 26.0 | 0.00 | 0.28 | 0.01 | 48 | 1008.7 |
| 20260903171556 | 66 | 254 | 16.0 | 27.0 | 0.00 | 0.28 | 0.01 | 48 | 1008.6 |
| 20260903170052 | 66 | 257 | 19.0 | 28.0 | 0.00 | 0.28 | 0.01 | 48 | 1008.4 |
| 20260903164558 | 65 | 237 | 20.0 | 31.0 | 0.00 | 0.28 | 0.01 | 50 | 1008.3 |
| 20260903163046 | 64 | 243 | 17.0 | 28.0 | 0.00 | 0.28 | 0.01 | 52 | 1008.0 |
| 20260903161546 | 63 | 250 | 20.0 | 28.0 | 0.00 | 0.28 | 0.01 | 53 | 1007.9 |
| 20260903160042 | 61 | 229 | 6.0 | 13.0 | 0.00 | 0.28 | 0.01 | 60 | 1008.0 |